When you browse on this site, cookies collect data to enhance your experience and personalize the content and advertising you see.
Visit our Privacy Policy to learn more. By continuing to use the site, you agree to this use of cookies and data.
  • Em Portugal
  • Lista de países
  • Para 7 dias
  • Temperatura da água
  • Mapa do tempo
  • Widgets de tempo
  • user-avatar
    Iniciar Sessão

    Previsão horária em Vejle

    Hoje, 16 Dezembro, Segunda-feira

    Tempo Temperatura Precipitação Vento Pressão Humidade
    00:00 +2°C° 0 mm 6 m/s 741 mmHg 81%
    01:00 +2°C° 0 mm 6 m/s 742 mmHg 81%
    02:00 +2°C° 0 mm 6 m/s 742 mmHg 83%
    03:00 +2°C° 0 mm 5 m/s 743 mmHg 86%
    04:00 +2°C° 0 mm 5 m/s 743 mmHg 89%
    05:00 +3°C° 0.1 mm 6 m/s 743 mmHg 89%
    06:00 +3°C° 0.1 mm 6 m/s 743 mmHg 89%
    07:00 +3°C° 0.1 mm 7 m/s 743 mmHg 90%
    08:00 +3°C° 0 mm 7 m/s 743 mmHg 89%
    09:00 +2°C° 0 mm 8 m/s 743 mmHg 88%
    10:00 +2°C° 0 mm 8 m/s 743 mmHg 87%
    11:00 +2°C° 0.3 mm 8 m/s 743 mmHg 87%
    12:00 +3°C° 0.3 mm 7 m/s 743 mmHg 88%
    13:00 +3°C° 0.3 mm 7 m/s 743 mmHg 89%
    14:00 +4°C° 0.1 mm 7 m/s 743 mmHg 88%
    15:00 +4°C° 0.1 mm 6 m/s 743 mmHg 88%
    16:00 +4°C° 0.1 mm 6 m/s 744 mmHg 87%
    17:00 +5°C° 0 mm 5 m/s 744 mmHg 88%
    18:00 +5°C° 0 mm 5 m/s 744 mmHg 90%
    19:00 +4°C° 0 mm 4 m/s 744 mmHg 91%
    20:00 +4°C° 0 mm 4 m/s 744 mmHg 92%
    21:00 +4°C° 0 mm 4 m/s 744 mmHg 92%
    22:00 +4°C° 0 mm 4 m/s 745 mmHg 93%
    23:00 +3°C° 0 mm 3 m/s 745 mmHg 94%

    Amanhã, 17 Dezembro, Terça-feira

    Tempo Temperatura Precipitação Vento Pressão Humidade
    00:00 +3°C° 0 mm 3 m/s 745 mmHg 94%
    01:00 +3°C° 0 mm 3 m/s 745 mmHg 95%
    02:00 +4°C° 0 mm 2 m/s 745 mmHg 95%
    03:00 +4°C° 0 mm 2 m/s 745 mmHg 94%
    04:00 +4°C° 0 mm 2 m/s 745 mmHg 94%
    05:00 +4°C° 0.2 mm 2 m/s 745 mmHg 94%
    06:00 +5°C° 0.2 mm 2 m/s 744 mmHg 94%
    07:00 +5°C° 0.2 mm 2 m/s 744 mmHg 94%
    08:00 +4°C° 0.5 mm 3 m/s 744 mmHg 95%
    09:00 +4°C° 0.5 mm 3 m/s 744 mmHg 95%
    10:00 +4°C° 0.5 mm 4 m/s 744 mmHg 96%
    11:00 +4°C° 0.5 mm 4 m/s 744 mmHg 96%
    12:00 +5°C° 0.5 mm 4 m/s 743 mmHg 96%
    13:00 +5°C° 0.5 mm 4 m/s 743 mmHg 96%
    14:00 +5°C° 0.7 mm 4 m/s 743 mmHg 96%
    15:00 +5°C° 0.7 mm 4 m/s 742 mmHg 95%
    16:00 +5°C° 0.7 mm 4 m/s 742 mmHg 95%
    17:00 +6°C° 0.4 mm 4 m/s 742 mmHg 93%
    18:00 +6°C° 0.4 mm 5 m/s 742 mmHg 92%
    19:00 +7°C° 0.4 mm 5 m/s 741 mmHg 90%
    20:00 +7°C° 0.2 mm 6 m/s 741 mmHg 88%
    21:00 +8°C° 0.2 mm 7 m/s 741 mmHg 86%
    22:00 +8°C° 0.2 mm 7 m/s 741 mmHg 84%
    23:00 +7°C° 0 mm 8 m/s 741 mmHg 84%

    Depois de amanhã, 18 Dezembro, Quarta-feira

    Tempo Temperatura Precipitação Vento Pressão Humidade
    00:00 +7°C° 0 mm 9 m/s 741 mmHg 85%
    01:00 +7°C° 0 mm 9 m/s 741 mmHg 85%
    02:00 +7°C° 0.1 mm 9 m/s 741 mmHg 85%
    03:00 +6°C° 0.1 mm 9 m/s 742 mmHg 86%
    04:00 +6°C° 0.1 mm 8 m/s 742 mmHg 86%
    05:00 +5°C° 0 mm 8 m/s 743 mmHg 84%
    06:00 +4°C° 0 mm 7 m/s 744 mmHg 83%
    07:00 +4°C° 0 mm 6 m/s 746 mmHg 81%
    08:00 +3°C° 0 mm 6 m/s 747 mmHg 82%
    09:00 +3°C° 0 mm 5 m/s 747 mmHg 83%
    10:00 +3°C° 0 mm 5 m/s 748 mmHg 85%
    11:00 +3°C° 0 mm 5 m/s 749 mmHg 82%
    12:00 +5°C° 0 mm 5 m/s 749 mmHg 78%
    13:00 +5°C° 0 mm 5 m/s 750 mmHg 75%
    14:00 +5°C° 0 mm 4 m/s 750 mmHg 78%
    15:00 +4°C° 0 mm 4 m/s 751 mmHg 80%
    16:00 +3°C° 0 mm 3 m/s 751 mmHg 83%
    17:00 +3°C° 0 mm 3 m/s 752 mmHg 86%
    18:00 +4°C° 0 mm 2 m/s 752 mmHg 88%
    19:00 +3°C° 0 mm 2 m/s 752 mmHg 91%
    20:00 +3°C° 0 mm 2 m/s 752 mmHg 91%
    21:00 +3°C° 0 mm 2 m/s 753 mmHg 91%
    22:00 +3°C° 0 mm 1 m/s 753 mmHg 91%
    23:00 +3°C° 0 mm 1 m/s 753 mmHg 91%

    19 Dezembro, Quinta-feira

    Tempo Temperatura Precipitação Vento Pressão Humidade
    00:00 +3°C° 0 mm 1 m/s 753 mmHg 91%
    01:00 +3°C° 0 mm 1 m/s 753 mmHg 91%
    02:00 +2°C° 0 mm 2 m/s 752 mmHg 91%
    03:00 +2°C° 0 mm 2 m/s 752 mmHg 91%
    04:00 +1°C° 0 mm 3 m/s 752 mmHg 90%
    05:00 0°C° 0 mm 4 m/s 752 mmHg 90%
    06:00 0°C° 0 mm 4 m/s 751 mmHg 90%
    07:00 0°C° 0 mm 5 m/s 751 mmHg 90%
    08:00 +1°C° 0 mm 5 m/s 751 mmHg 89%
    09:00 +1°C° 0 mm 5 m/s 751 mmHg 88%
    10:00 +2°C° 0 mm 6 m/s 751 mmHg 87%
    11:00 +2°C° 0 mm 6 m/s 751 mmHg 88%
    12:00 +3°C° 0 mm 6 m/s 750 mmHg 89%
    13:00 +3°C° 0 mm 6 m/s 750 mmHg 91%
    14:00 +3°C° 0.1 mm 6 m/s 750 mmHg 92%
    15:00 +3°C° 0.1 mm 6 m/s 749 mmHg 93%
    16:00 +3°C° 0.1 mm 6 m/s 749 mmHg 95%
    17:00 +3°C° 0.1 mm 6 m/s 749 mmHg 94%
    18:00 +3°C° 0.1 mm 6 m/s 749 mmHg 93%
    19:00 +3°C° 0.1 mm 6 m/s 749 mmHg 93%
    20:00 +3°C° 0 mm 6 m/s 748 mmHg 92%
    21:00 +3°C° 0 mm 6 m/s 748 mmHg 92%
    22:00 +3°C° 0 mm 6 m/s 748 mmHg 92%
    23:00 +3°C° 0 mm 6 m/s 748 mmHg 92%

    20 Dezembro, Sexta-feira

    Tempo Temperatura Precipitação Vento Pressão Humidade
    00:00 +3°C° 0 mm 6 m/s 747 mmHg 92%
    01:00 +3°C° 0 mm 6 m/s 747 mmHg 92%
    02:00 +3°C° 0 mm 6 m/s 746 mmHg 92%
    03:00 +3°C° 0 mm 6 m/s 746 mmHg 92%
    04:00 +2°C° 0 mm 6 m/s 745 mmHg 92%
    05:00 +3°C° 0 mm 6 m/s 745 mmHg 93%
    06:00 +3°C° 0 mm 6 m/s 745 mmHg 93%
    07:00 +3°C° 0 mm 6 m/s 744 mmHg 94%
    08:00 +3°C° 0 mm 7 m/s 744 mmHg 94%
    09:00 +3°C° 0 mm 7 m/s 744 mmHg 94%
    10:00 +3°C° 0 mm 7 m/s 744 mmHg 95%
    11:00 +3°C° 0 mm 7 m/s 743 mmHg 94%
    12:00 +4°C° 0 mm 7 m/s 743 mmHg 93%
    13:00 +4°C° 0 mm 6 m/s 742 mmHg 93%
    14:00 +4°C° 0 mm 6 m/s 742 mmHg 93%
    15:00 +4°C° 0 mm 6 m/s 741 mmHg 94%
    16:00 +5°C° 0 mm 5 m/s 741 mmHg 94%
    17:00 +5°C° 0 mm 5 m/s 740 mmHg 93%
    18:00 +4°C° 0 mm 6 m/s 740 mmHg 93%
    19:00 +4°C° 0 mm 6 m/s 740 mmHg 92%
    20:00 +5°C° 0 mm 5 m/s 740 mmHg 93%
    21:00 +5°C° 0 mm 4 m/s 740 mmHg 93%
    22:00 +5°C° 0 mm 4 m/s 740 mmHg 93%
    23:00 +5°C° 0 mm 4 m/s 740 mmHg 94%

    21 Dezembro, Sábado

    Tempo Temperatura Precipitação Vento Pressão Humidade
    00:00 +5°C° 0 mm 4 m/s 739 mmHg 94%
    01:00 +5°C° 0 mm 5 m/s 739 mmHg 94%
    02:00 +5°C° 0 mm 5 m/s 739 mmHg 94%
    03:00 +5°C° 0 mm 5 m/s 739 mmHg 93%
    04:00 +5°C° 0 mm 5 m/s 738 mmHg 92%
    05:00 +5°C° 0 mm 5 m/s 738 mmHg 92%
    06:00 +5°C° 0 mm 5 m/s 738 mmHg 92%
    07:00 +5°C° 0 mm 5 m/s 738 mmHg 92%
    08:00 +5°C° 0 mm 4 m/s 738 mmHg 92%
    09:00 +5°C° 0 mm 4 m/s 739 mmHg 92%
    10:00 +5°C° 0 mm 4 m/s 739 mmHg 93%
    11:00 +5°C° 0.1 mm 3 m/s 739 mmHg 93%
    12:00 +5°C° 0.1 mm 3 m/s 739 mmHg 93%
    13:00 +5°C° 0.1 mm 3 m/s 739 mmHg 93%
    14:00 +5°C° 0.1 mm 3 m/s 739 mmHg 94%
    15:00 +5°C° 0.1 mm 3 m/s 739 mmHg 95%
    16:00 +6°C° 0.1 mm 2 m/s 740 mmHg 95%
    17:00 +6°C° 0 mm 2 m/s 740 mmHg 96%
    18:00 +6°C° 0 mm 2 m/s 740 mmHg 96%
    19:00 +6°C° 0 mm 2 m/s 740 mmHg 96%
    20:00 +6°C° 0.1 mm 1 m/s 741 mmHg 96%
    21:00 +6°C° 0.1 mm 1 m/s 741 mmHg 96%
    22:00 +6°C° 0.1 mm 1 m/s 741 mmHg 97%
    23:00 +5°C° 0.1 mm 0 m/s 741 mmHg 97%
    Mostrar mais